Hourly Data Report for October 02, 2017

All times are specified in Local Standard Time (LST). Add 1 hour to adjust for Daylight Saving Time where and when it is observed.

DEBERT
NOVA SCOTIA

45°25'00.000" N
63°28'00.000" W
37.50 m
8201390
71317
ZDB

Download Data

Hourly Data (October 2017)
Hourly Data Report for October 2, 2017
Temp Definition
°C
Dew Point Temp Definition
°C
Rel Hum Definition
%
Wind Dir Definition
10's deg

Wind Spd Definition
km/h
Visibility Definition
km
Stn Press Definition
kPa
Hmdx Definition


Wind Chill Definition


Weather Definition


TIME
00:00 6.2 4.4 88 34 4   101.51     LegendNANA
01:00 3.9 2.6 91 34 2   101.48     LegendNANA
02:00 3.4 2.3 92 5 2   101.46     LegendNANA
03:00 2.8 1.7 92 13 9   101.45     LegendNANA
04:00 3.5 2.3 92 14 1   101.51     LegendNANA
05:00 3.6 2.1 90 20 2   101.59     LegendNANA
06:00 4.3 2.6 89 35 3   101.71     LegendNANA
07:00 5.0 4.0 93 36 4   101.81     LegendNANA
08:00 11.1 6.5 73 2 15   101.88     LegendNANA
09:00 12.0 5.2 63 1 20   101.95     LegendNANA
10:00 11.6 4.2 61 35 21   102.04     LegendNANA
11:00 12.6 3.8 55 36 26   102.08     LegendNANA
12:00 11.9 1.7 50 36 26   102.17     LegendNANA
13:00 11.6 2.5 54 1 23   102.20     LegendNANA
14:00 10.9 3.3 59 36 26   102.26     LegendNANA
15:00 10.9 2.5 56 36 28   102.31     LegendNANA
16:00 10.1 2.7 60 1 24   102.38     LegendNANA
17:00 9.3 2.5 63 1 20   102.49     LegendNANA
18:00 8.2 2.1 65 36 17   102.56     LegendNANA
19:00 7.0 1.5 68 34 11   102.66     LegendNANA
20:00 7.1 1.8 69 36 6   102.72     LegendNANA
21:00 6.5 2.3 74 33 8   102.79     LegendNANA
22:00 6.8 2.7 75 33 11   102.81     LegendNANA
23:00 6.7 3.4 79 32 6   102.82     LegendNANA

Notes on Data Quality.

Legend

  • E = Estimated
  • M = Missing
  • NA = Not Available
  • ‡ = Partner data that is not subject to review by the National Climate Archives
Date modified: